Location: Newark
(43.6583°N, 1.6617°E)
Time: 12:14:39
(UTC+00:00)

Vanguard 1 Rocket - Pass Details

Date: 28 August 2019
Orbit: 652 x 4225 km, 34.3° (Epoch: 15 September)

Event Time Altitude Azimuth Distance (km) Brightness Sun altitude
Rises 00:33:37 0° 230° (SW) 3,381 - -35.7°
Reaches altitude 10° 00:36:53 10° 213° (SSW) 2,197 - -35.6°
Maximum altitude 00:40:16 19° 166° (SSE) 1,531 - -35.5°
Drops below altitude 10° 00:43:28 10° 119° (ESE) 2,064 - -35.3°
Sets 00:46:24 0° 100° (E) 3,101 - -35.2°
